Overview Statistics Trail Chart Weather Telemetry Raw packets
 

This is the latest recevied weather packets stored in our database for station/object OH6GKW. If no packets are shown the sender has not sent any weather packets the latest 10 day(s).

<< 101 102 103 104 105 106 107 >>
Time Temp. Humidity Pressure Rain* Wind** Luminosity Snow
1787900915 16.11° C 64% 1022.7 hPa 0 mm - 368 W/m² -
1787900630 16.11° C 66% 1022.7 hPa 0 mm - 385 W/m² -
1787900319 15.56° C 66% 1022.7 hPa 0 mm - 403 W/m² -
1787900015 15.56° C 67% 1022.7 hPa 0 mm - 392 W/m² -
1787899738 15.56° C 67% 1022.7 hPa 0 mm - 380 W/m² -
1787899434 15° C 68% 1022.9 hPa 0 mm - 368 W/m² -
1787899125 15° C 67% 1022.9 hPa 0 mm - 354 W/m² -
1787898820 15° C 69% 1022.9 hPa 0 mm - 347 W/m² -
1787898509 14.44° C 69% 1023.1 hPa 0 mm - 334 W/m² -
1787898222 14.44° C 71% 1023.1 hPa 0 mm - 327 W/m² -
1787897910 13.89° C 72% 1023 hPa 0 mm - 315 W/m² -
1787897623 13.89° C 74% 1023.1 hPa 0 mm - 308 W/m² -
1787897315 13.33° C 74% 1023.1 hPa 0 mm - 297 W/m² -
1787897020 13.33° C 76% 1023.1 hPa 0 mm - 289 W/m² -
1787896709 12.78° C 76% 1023.1 hPa 0 mm - 192 W/m² -
1787896427 12.78° C 76% 1023.1 hPa 0 mm - 93 W/m² -
1787896118 12.78° C 76% 1023.1 hPa 0 mm - 194 W/m² -
1787895813 12.22° C 76% 1023.1 hPa 0 mm - 56 W/m² -
1787895527 12.22° C 76% 1023.1 hPa 0 mm - 39 W/m² -
1787895222 12.22° C 77% 1023.1 hPa 0 mm - 44 W/m² -
1787894938 11.67° C 78% 1023.3 hPa 0 mm - 35 W/m² -
1787894630 11.67° C 78% 1023.3 hPa 0 mm - 35 W/m² -
1787894325 11.11° C 79% 1023.2 hPa 0 mm - 40 W/m² -
1787894018 11.11° C 80% 1023.3 hPa 0 mm - 55 W/m² -
1787893710 11.11° C 81% 1023.3 hPa 0 mm - 62 W/m² -

* Rain since midnight (hover to see other rain measurements)
** Current wind speed in m/s (hover to see current wind gust speed)